CDT,Max TemperatureF,Mean TemperatureF,Min TemperatureF,Max Dew PointF,MeanDew PointF,Min DewpointF,Max Humidity, Mean Humidity, Min Humidity, Max Sea Level PressureIn, Mean Sea Level PressureIn, Min Sea Level PressureIn, Max VisibilityMiles, Mean VisibilityMiles, Min VisibilityMiles, Max Wind SpeedMPH, Mean Wind SpeedMPH, Max Gust SpeedMPH,PrecipitationIn, CloudCover, Events, WindDirDegrees
2013-7-1,80,71,61,58,53,49,72,56,39,30.01,29.97,29.94,10,10,10,22,12,32,T,3,,15
2013-7-2,73,67,61,58,56,54,84,69,53,30.05,30.02,29.98,10,10,10,15,9,20,T,7,Rain,23
2013-7-3,81,70,58,61,57,53,93,68,42,30.09,30.05,30.02,10,10,6,12,4,21,0.00,2,,346
2013-7-4,85,75,64,61,60,58,84,64,44,30.09,30.06,30.02,10,10,8,13,7,16,0.00,1,,164
2013-7-5,84,74,63,67,63,59,100,74,47,30.09,30.05,30.01,10,8,2,14,6,22,0.00,1,,158
2013-7-6,85,75,65,69,66,63,93,72,51,30.06,30.02,29.98,10,10,10,15,6,18,0.00,0,,163
2013-7-7,91,79,67,71,67,61,93,70,47,30.04,30.00,29.97,10,10,10,15,9,18,0.00,1,,193
2013-7-8,87,82,76,75,71,68,88,76,63,30.08,30.03,29.99,10,10,10,13,6,16,T,3,Rain,209
2013-7-9,93,85,77,75,73,71,88,72,56,30.03,29.97,29.90,10,10,10,15,8,18,0.02,1,,216
2013-7-10,88,78,67,74,70,65,93,72,51,30.01,29.93,29.85,10,8,0,30,9,39,0.95,4,Fog-Rain-Thunderstorm,260
2013-7-11,83,73,62,63,61,58,93,70,46,30.09,30.06,30.01,10,10,9,13,5,16,0.00,1,,38
2013-7-12,83,69,54,60,56,51,93,64,34,30.15,30.10,30.06,10,10,10,12,4,17,0.00,0,,59
2013-7-13,84,72,59,65,61,57,90,69,47,30.12,30.09,30.05,10,10,10,14,5,24,0.00,1,,81
2013-7-14,90,76,62,73,68,62,93,70,47,30.17,30.13,30.09,10,10,5,20,5,25,0.01,2,Rain,88
2013-7-15,89,80,71,73,72,69,93,76,59,30.25,30.21,30.16,10,10,9,13,5,15,0.00,2,,120
2013-7-16,91,82,73,73,71,69,94,73,52,30.31,30.27,30.23,10,10,10,12,5,18,0.00,1,,180
2013-7-17,94,83,71,77,72,69,93,71,49,30.33,30.27,30.19,10,10,8,8,1,10,0.00,1,,233
2013-7-18,94,84,73,75,73,71,94,72,49,30.21,30.11,30.01,10,10,8,10,4,15,0.00,0,,224
2013-7-19,94,85,76,75,73,71,88,69,49,30.00,29.92,29.84,10,10,9,14,8,17,0.00,0,,218
2013-7-20,89,80,70,74,70,65,93,72,50,29.92,29.87,29.84,10,10,10,14,6,18,0.00,1,,345
2013-7-21,81,74,67,74,71,67,100,87,74,29.94,29.90,29.86,10,8,2,9,3,12,0.29,4,Rain-Thunderstorm,144
2013-7-22,87,76,65,74,70,66,100,79,57,29.89,29.83,29.78,10,9,1,18,4,23,0.00,1,,251
2013-7-23,87,77,66,72,67,62,100,78,55,29.93,29.84,29.77,10,10,10,16,7,23,0.03,0,,345
2013-7-24,77,68,58,62,56,53,93,68,43,30.04,30.01,29.94,10,10,10,16,7,21,0.00,0,,36
2013-7-25,82,68,54,64,56,52,100,70,39,30.13,30.09,30.05,10,10,10,9,1,13,0.00,0,,43
2013-7-26,75,68,61,70,65,58,100,87,73,30.06,30.00,29.94,10,7,1,15,6,21,1.10,6,Rain-Thunderstorm,207
2013-7-27,72,62,52,61,54,47,100,72,44,30.01,29.98,29.95,10,10,10,21,9,28,0.00,3,,305
2013-7-28,75,62,48,58,52,47,100,72,43,30.08,30.02,29.99,10,10,10,20,6,26,0.00,1,,266
2013-7-29,79,65,50,61,56,51,100,72,43,30.17,30.13,30.08,10,9,1,9,3,10,0.00,1,,116
2013-7-30,73,69,65,70,66,60,100,87,73,30.14,30.09,30.03,10,7,1,15,8,20,0.86,8,Rain,143
2013-7-31,76,70,63,72,69,65,100,90,79,30.05,30.03,30.00,10,6,0,12,4,15,T,7,Fog,294